ORBCOMM FM32

Last updated on Sun Jun 21 2026 00:03:16 GMT+0000 (Coordinated Universal Time)

1 25982U 99065C 26171.00154369 .00000315 00000+0 15234-3 0 9996 2 25982 45.0134 159.9179 0004329 50.9865 309.1368 14.37132393387494
UTC large
Height (km)
Speed (km/s)
/
Latitude / Longitude
Inclination (degrees)
Orbital Period (minutes)
Azimuth
Elevation
Range (km)
Doppler Factor

Next 0 passes for location: London (51.5072 / 0.1276)

No passes found over London.
ORBCOMM FM32